TimeMDT,TemperatureF,Dew PointF,Humidity,Sea Level PressureIn,VisibilityMPH,Wind Direction,Wind SpeedMPH,Gust SpeedMPH,PrecipitationIn,Events,Conditions,WindDirDegrees,DateUTC
12:52 AM,79.0,36.0,21,29.83,10.0,South,16.1,-,N/A,,Clear,170,2012-09-01 06:52:00
1:52 AM,77.0,36.0,23,29.83,10.0,South,12.7,-,N/A,,Clear,190,2012-09-01 07:52:00
2:52 AM,75.0,36.0,24,29.83,10.0,SSE,10.4,-,N/A,,Clear,160,2012-09-01 08:52:00
3:52 AM,75.0,36.0,24,29.84,10.0,South,11.5,-,N/A,,Clear,170,2012-09-01 09:52:00
4:52 AM,73.9,36.0,25,29.84,10.0,South,9.2,-,N/A,,Clear,170,2012-09-01 10:52:00
5:52 AM,73.4,35.6,25,29.94,10.0,SSE,6.9,-,N/A,,Clear,160,2012-09-01 11:52:00
6:52 AM,68.0,37.0,32,29.85,10.0,SE,9.2,-,N/A,,Clear,130,2012-09-01 12:52:00
7:52 AM,75.0,37.0,25,29.86,10.0,South,17.3,-,N/A,,Clear,170,2012-09-01 13:52:00
8:52 AM,84.0,37.0,19,29.82,10.0,South,19.6,-,N/A,,Clear,180,2012-09-01 14:52:00
9:52 AM,89.1,36.0,15,29.81,10.0,South,21.9,29.9,N/A,,Clear,190,2012-09-01 15:52:00
10:52 AM,93.9,39.0,15,29.79,10.0,South,20.7,27.6,N/A,,Clear,190,2012-09-01 16:52:00
11:52 AM,97.0,43.0,16,29.77,10.0,South,20.7,28.8,N/A,,Clear,180,2012-09-01 17:52:00
12:52 PM,99.0,42.1,14,29.75,10.0,SSW,19.6,29.9,N/A,,Clear,200,2012-09-01 18:52:00
1:52 PM,100.0,43.0,14,29.73,10.0,SW,16.1,29.9,N/A,,Clear,220,2012-09-01 19:52:00
2:52 PM,100.0,44.1,15,29.71,10.0,South,16.1,27.6,N/A,,Clear,190,2012-09-01 20:52:00
3:52 PM,97.0,44.1,16,29.70,10.0,South,13.8,-,N/A,,Clear,190,2012-09-01 21:52:00
4:52 PM,97.0,44.1,16,29.69,10.0,South,16.1,-,N/A,,Partly Cloudy,190,2012-09-01 22:52:00
5:19 PM,93.2,44.6,19,29.82,5.0,South,11.5,-,N/A,Thunderstorm,Unknown,180,2012-09-01 23:19:00
5:25 PM,84.2,51.8,33,29.84,1.8,NNE,18.4,32.2,0.00,Rain-Thunderstorm,Heavy Thunderstorms and Rain,30,2012-09-01 23:25:00
5:30 PM,80.6,53.6,39,29.84,1.5,West,12.7,62.1,0.10,Rain-Thunderstorm,Heavy Thunderstorms and Rain,280,2012-09-01 23:30:00
5:35 PM,82.4,53.6,37,29.83,3.0,SW,20.7,62.1,0.12,Rain-Thunderstorm,Light Thunderstorms and Rain,230,2012-09-01 23:35:00
5:42 PM,86.0,51.8,31,29.82,10.0,South,11.5,25.3,0.12,Rain-Thunderstorm,Light Thunderstorms and Rain,180,2012-09-01 23:42:00
5:52 PM,86.0,54.0,33,29.72,10.0,South,16.1,24.2,0.12,Thunderstorm,Scattered Clouds,180,2012-09-01 23:52:00
5:55 PM,86.0,53.6,33,29.82,10.0,South,17.3,24.2,N/A,,Scattered Clouds,170,2012-09-01 23:55:00
6:52 PM,82.0,55.9,41,29.73,10.0,SSE,4.6,-,N/A,,Clear,160,2012-09-02 00:52:00
7:52 PM,78.1,54.0,43,29.74,10.0,SSW,4.6,-,N/A,,Clear,210,2012-09-02 01:52:00
8:52 PM,79.0,51.1,38,29.75,10.0,SW,4.6,-,N/A,,Clear,230,2012-09-02 02:52:00
9:52 PM,75.0,50.0,41,29.75,10.0,WSW,5.8,-,N/A,,Clear,250,2012-09-02 03:52:00
10:52 PM,66.0,55.0,68,29.75,10.0,Calm,Calm,-,N/A,,Clear,0,2012-09-02 04:52:00
11:52 PM,75.9,48.0,37,29.75,10.0,Variable,4.6,-,N/A,,Clear,0,2012-09-02 05:52:00